FW2736 Weather Reports


Display with metric or nautical units.
time (UTC)temp
F
wind
direction
speed
MPH
gust
MPH
rain 1hr
in
rain 24hr
in
rain mn
in
humidity
%
barometer
mb
20260905041240 72 313 3.0 0.0 0.00 0.05 0.03 21 961.4
20260905040740 72 64 5.0 0.0 0.00 0.05 0.03 21 961.4
20260905040210 73 22 5.0 0.0 0.00 0.05 0.03 20 961.4
20260905035742 73 7 5.0 0.0 0.00 0.05 0.03 21 961.1
20260905035238 73 92 4.0 0.0 0.00 0.05 0.03 20 961.1
20260905034742 73 28 4.0 0.0 0.00 0.05 0.03 19 961.1
20260905034238 74 254 8.0 0.0 0.00 0.05 0.03 18 961.1
20260905033801 74 138 8.0 0.0 0.00 0.05 0.03 18 961.1
20260905033240 74 132 6.0 0.0 0.00 0.05 0.03 17 961.1
20260905032800 74 84 7.0 0.0 0.00 0.05 0.03 17 960.7
20260905032300 74 131 6.0 0.0 0.00 0.05 0.03 17 960.7
20260905031757 74 36 3.0 0.0 0.00 0.05 0.03 17 960.7
20260905031257 74 258 6.0 0.0 0.00 0.05 0.03 18 960.7
20260905030758 75 110 7.0 0.0 0.00 0.05 0.03 18 960.7
20260905030257 74 86 6.0 0.0 0.00 0.05 0.03 20 960.7
20260905025756 74 4 3.0 0.0 0.00 0.05 0.03 20 960.7
20260905025256 74 278 5.0 0.0 0.00 0.05 0.03 21 960.7
20260905024754 75 290 5.0 0.0 0.00 0.05 0.03 21 960.4
20260905024253 76 262 3.0 0.0 0.00 0.05 0.03 21 960.4
20260905023752 76 39 6.0 0.0 0.00 0.05 0.03 20 960.4
20260905023251 76 144 7.0 0.0 0.00 0.05 0.03 20 960.4
20260905022743 77 138 6.0 0.0 0.00 0.05 0.03 21 960.4
20260905022254 77 276 7.0 0.0 0.00 0.05 0.03 21 960.4
20260905021752 78 132 7.0 0.0 0.00 0.05 0.03 21 960.0
20260905021252 78 108 9.0 0.0 0.00 0.05 0.03 21 960.0
20260905020751 78 127 11.0 0.0 0.00 0.05 0.03 20 960.0
20260905020250 79 164 12.0 0.0 0.00 0.05 0.03 19 960.0
20260905015749 79 129 14.0 0.0 0.00 0.05 0.03 20 960.0
20260905015251 79 45 8.0 0.0 0.00 0.05 0.03 20 960.0
20260905014747 79 109 10.0 0.0 0.00 0.05 0.03 21 960.0
20260905014248 80 83 9.0 0.0 0.00 0.05 0.03 21 959.7
20260905013746 80 126 11.0 0.0 0.00 0.05 0.03 21 959.7
20260905013245 80 36 15.0 0.0 0.00 0.05 0.03 20 959.7
20260905012745 80 125 15.0 0.0 0.00 0.05 0.03 20 959.7
20260905012242 81 203 15.0 0.0 0.00 0.05 0.03 20 959.7
20260905011843 81 40 17.0 0.0 0.00 0.05 0.03 20 959.7
20260905011540 81 58 17.0 0.0 0.00 0.05 0.03 21 959.7
20260905010739 81 217 16.0 0.0 0.00 0.05 0.03 21 960.0
20260905010240 81 135 16.0 0.0 0.00 0.05 0.03 22 959.7
20260905005738 82 122 16.0 0.0 0.00 0.05 0.03 21 959.7
20260905005239 82 123 13.0 0.0 0.00 0.05 0.03 22 959.7
20260905004738 83 252 17.0 0.0 0.00 0.05 0.03 22 959.7
20260905004236 83 90 13.0 0.0 0.00 0.05 0.03 22 959.7
20260905003736 84 138 11.0 0.0 0.00 0.05 0.03 22 959.7
20260905003236 84 146 12.0 0.0 0.00 0.05 0.03 22 959.7
20260905002734 84 152 12.0 0.0 0.00 0.05 0.03 23 959.7
20260905002233 85 235 14.0 0.0 0.00 0.05 0.03 22 959.7
20260905001733 85 118 12.0 0.0 0.00 0.05 0.03 22 959.7
20260905001232 85 205 13.0 0.0 0.00 0.05 0.03 22 959.7
20260905000732 85 115 14.0 0.0 0.00 0.05 0.03 22 959.7
20260905000230 85 56 14.0 0.0 0.00 0.05 0.03 22 959.4
20260904235730 86 171 13.0 0.0 0.00 0.05 0.03 21 959.7
20260904235229 86 121 13.0 0.0 0.00 0.05 0.03 22 959.7
20260904234728 86 155 15.0 0.0 0.00 0.05 0.03 22 959.7
20260904234227 86 173 13.0 0.0 0.00 0.05 0.03 22 959.7
20260904233727 87 131 10.0 0.0 0.00 0.05 0.03 22 959.7
20260904233227 88 32 10.0 0.0 0.00 0.05 0.03 21 959.7
20260904232725 88 189 10.0 0.0 0.00 0.05 0.03 21 959.7
20260904232224 88 56 13.0 0.0 0.00 0.05 0.03 21 959.7
20260904231724 88 124 17.0 0.0 0.00 0.05 0.03 21 959.7
20260904231223 88 205 17.0 0.0 0.00 0.05 0.03 21 959.7
20260904230723 88 196 15.0 0.0 0.00 0.05 0.03 22 959.7
20260904230238 88 192 12.0 0.0 0.00 0.05 0.03 22 959.7
20260904225922 88 63 11.0 0.0 0.00 0.05 0.03 23 959.7
20260904225522 88 171 11.0 0.0 0.00 0.05 0.03 22 959.7
20260904224739 89 72 10.0 0.0 0.00 0.05 0.03 22 959.7
20260904224236 89 133 10.0 0.0 0.00 0.05 0.03 23 959.7
20260904223720 90 160 11.0 0.0 0.00 0.05 0.03 21 959.7
20260904223240 90 149 11.0 0.0 0.00 0.05 0.03 21 959.7
20260904222741 89 140 12.0 0.0 0.00 0.05 0.03 22 959.7
20260904222239 90 121 10.0 0.0 0.00 0.05 0.03 21 959.7
20260904221742 91 201 10.0 0.0 0.00 0.05 0.03 19 959.7
20260904221221 90 141 10.0 0.0 0.00 0.05 0.03 18 960.0
20260904220741 90 172 12.0 0.0 0.00 0.05 0.03 18 960.0
20260904220220 89 141 12.0 0.0 0.00 0.05 0.03 18 960.0
20260904215737 90 187 9.0 0.0 0.00 0.05 0.03 19 960.0
20260904215219 89 71 9.0 0.0 0.00 0.05 0.03 18 960.0
20260904214719 90 176 10.0 0.0 0.00 0.05 0.03 18 960.0
20260904214240 90 145 13.0 0.0 0.00 0.05 0.03 18 960.0
20260904213718 90 160 11.0 0.0 0.00 0.05 0.03 19 960.4
20260904213217 90 125 9.0 0.0 0.00 0.05 0.03 17 960.4
20260904212718 90 165 10.0 0.0 0.00 0.05 0.03 17 960.4
20260904212217 90 136 9.0 0.0 0.00 0.05 0.03 17 960.4
20260904211716 89 203 10.0 0.0 0.00 0.05 0.03 17 960.4
20260904211217 90 150 11.0 0.0 0.00 0.05 0.03 17 960.4
20260904210723 88 166 11.0 0.0 0.00 0.05 0.03 17 960.4
20260904210217 89 192 13.0 0.0 0.00 0.05 0.03 18 960.4
20260904205716 89 123 13.0 0.0 0.00 0.05 0.03 17 960.4
20260904205216 88 120 12.0 0.0 0.00 0.05 0.03 18 960.4
20260904204716 89 125 10.0 0.0 0.00 0.05 0.03 16 960.4
20260904204215 88 133 9.0 0.0 0.00 0.05 0.03 17 960.4
20260904203714 89 133 9.0 0.0 0.00 0.05 0.03 20 960.4
20260904203216 88 176 8.0 0.0 0.00 0.05 0.03 21 960.4
20260904202715 88 126 9.0 0.0 0.00 0.05 0.03 22 960.4
20260904202216 88 187 10.0 0.0 0.00 0.05 0.03 22 960.4
20260904201714 87 186 10.0 0.0 0.00 0.05 0.03 25 960.7
20260904201214 88 160 10.0 0.0 0.00 0.05 0.03 24 960.7
20260904200715 86 120 8.0 0.0 0.00 0.05 0.03 25 960.7
20260904200213 85 170 15.0 0.0 0.00 0.05 0.03 22 960.7
20260904195713 86 109 15.0 0.0 0.00 0.05 0.03 27 960.7
20260904195212 87 123 11.0 0.0 0.00 0.05 0.03 25 960.7
20260904194714 86 172 11.0 0.0 0.00 0.05 0.03 27 961.1
20260904194240 87 160 11.0 0.0 0.00 0.05 0.03 27 961.1
20260904193712 86 114 9.0 0.0 0.00 0.05 0.03 28 961.1
20260904193213 86 180 8.0 0.0 0.00 0.05 0.03 29 961.1
20260904192713 85 135 9.0 0.0 0.00 0.05 0.03 30 961.1
20260904192212 84 132 12.0 0.0 0.00 0.05 0.03 31 961.4
20260904191713 86 175 13.0 0.0 0.00 0.05 0.03 32 961.4
20260904191212 83 142 13.0 0.0 0.00 0.05 0.03 34 961.4
20260904190822 84 172 9.0 0.0 0.00 0.05 0.03 32 961.4
20260904190238 82 88 10.0 0.0 0.00 0.05 0.03 34 961.4
20260904185742 84 123 8.0 0.0 0.00 0.05 0.03 32 961.7
20260904185213 83 115 12.0 0.0 0.00 0.05 0.03 32 961.7
20260904184715 82 186 10.0 0.0 0.00 0.05 0.03 33 961.7
20260904184214 83 135 9.0 0.0 0.00 0.05 0.03 32 961.7
20260904183710 82 133 9.0 0.0 0.00 0.05 0.03 33 961.7
20260904183215 82 127 10.0 0.0 0.00 0.05 0.03 33 961.7
20260904182737 81 140 10.0 0.0 0.00 0.05 0.03 34 961.7
20260904182212 81 79 9.0 0.0 0.00 0.05 0.03 34 961.7
20260904181741 81 140 9.0 0.0 0.00 0.05 0.03 35 961.7
20260904181211 81 185 9.0 0.0 0.00 0.05 0.03 35 961.7
20260904180715 80 103 8.0 0.0 0.00 0.05 0.03 36 961.7
20260904180212 81 269 7.0 0.0 0.00 0.05 0.03 36 962.1
20260904175714 79 128 9.0 0.0 0.00 0.05 0.03 39 962.1
20260904175213 78 158 8.0 0.0 0.00 0.05 0.03 42 962.1
20260904174711 78 147 7.0 0.0 0.00 0.05 0.03 42 962.1
20260904174212 78 165 6.0 0.0 0.00 0.05 0.03 43 962.1
20260904173711 76 355 6.0 0.0 0.00 0.05 0.03 46 962.1
20260904173211 77 159 6.0 0.0 0.00 0.05 0.03 48 962.1
20260904172712 74 356 5.0 0.0 0.00 0.05 0.03 54 962.1
20260904172222 74 105 6.0 0.0 0.00 0.05 0.03 55 962.1
20260904171719 74 121 5.0 0.0 0.00 0.05 0.03 54 962.1
20260904171218 74 298 4.0 0.0 0.00 0.05 0.03 55 962.1
20260904170718 74 143 6.0 0.0 0.00 0.05 0.03 56 962.1
20260904170217 74 112 5.0 0.0 0.00 0.05 0.03 56 962.1
20260904165719 73 52 4.0 0.0 0.00 0.05 0.03 57 962.1
20260904165217 73 94 5.0 0.0 0.00 0.05 0.03 57 962.1
20260904164718 72 131 5.0 0.0 0.00 0.05 0.03 58 962.1
20260904164216 72 170 4.0 0.0 0.00 0.05 0.03 59 962.1
20260904163718 70 8 4.0 0.0 0.00 0.05 0.03 61 961.7
20260904163216 70 41 6.0 0.0 0.00 0.05 0.03 61 961.7
20260904162715 70 68 3.0 0.0 0.00 0.05 0.03 62 961.7
20260904162215 69 46 3.0 0.0 0.00 0.05 0.03 63 961.7
20260904161716 68 16 3.0 0.0 0.00 0.05 0.03 65 961.7
20260904161214 68 355 3.0 0.0 0.03 0.05 0.03 65 961.7
20260904160715 68 23 3.0 0.0 0.03 0.05 0.03 64 961.7
20260904160215 69 91 3.0 0.0 0.03 0.05 0.03 65 961.7
20260904155715 67 103 3.0 0.0 0.03 0.05 0.03 67 961.7
20260904155214 67 129 4.0 0.0 0.05 0.05 0.03 67 961.7
20260904154714 66 331 4.0 0.0 0.05 0.05 0.03 68 961.7
20260904154214 66 16 3.0 0.0 0.05 0.05 0.03 69 961.7
20260904153741 64 6 3.0 0.0 0.05 0.05 0.03 70 961.7
20260904153214 64 87 3.0 0.0 0.05 0.05 0.03 71 961.7
20260904152714 66 7 3.0 0.0 0.05 0.05 0.03 66 961.7
20260904152212 64 119 2.0 0.0 0.05 0.05 0.03 69 961.7
20260904151714 65 138 3.0 0.0 0.05 0.05 0.03 66 961.7
20260904151213 73 186 1.0 0.0 0.02 0.02 0.00 49 961.7
20260904150814 74 266 1.0 0.0 0.02 0.02 0.00 69 961.7
20260904145737 64 266 3.0 0.0 0.02 0.02 0.02 69 961.7
20260904145211 64 144 4.0 0.0 0.00 0.00 0.00 65 961.7
20260904144713 64 123 2.0 0.0 0.00 0.00 0.00 64 961.7
20260904144238 64 131 2.0 0.0 0.00 0.00 0.00 64 961.7
20260904143712 63 156 1.0 0.0 0.00 0.00 0.00 66 961.7
20260904143238 62 109 2.0 0.0 0.00 0.00 0.00 67 961.7
20260904142716 61 106 2.0 0.0 0.00 0.00 0.00 68 961.7
20260904142214 60 104 0.0 0.0 0.00 0.00 0.00 71 961.7
20260904141714 59 103 0.0 0.0 0.00 0.00 0.00 72 961.7
20260904141242 58 104 1.0 0.0 0.00 0.00 0.00 76 961.4
20260904140713 57 103 1.0 0.0 0.00 0.00 0.00 78 961.4
20260904140242 56 137 0.0 0.0 0.00 0.00 0.00 82 961.4
20260904135714 54 139 0.0 0.0 0.00 0.00 0.00 88 961.1
20260904135213 54 331 0.0 0.0 0.00 0.00 0.00 89 961.4
20260904134714 54 330 0.0 0.0 0.00 0.00 0.00 89 961.4
20260904134228 53 330 0.0 0.0 0.00 0.00 0.00 90 961.4
20260904133729 53 288 0.0 0.0 0.00 0.00 0.00 89 961.1
20260904133227 53 288 2.0 0.0 0.00 0.00 0.00 89 961.1
20260904132727 53 288 2.0 0.0 0.00 0.00 0.00 90 961.4
20260904132227 53 302 1.0 0.0 0.00 0.00 0.00 89 961.1
20260904131726 54 236 1.0 0.0 0.00 0.00 0.00 89 961.1
20260904131226 54 317 0.0 0.0 0.00 0.00 0.00 88 961.1
20260904130725 54 308 0.0 0.0 0.00 0.00 0.00 90 961.1
20260904130226 54 308 0.0 0.0 0.00 0.00 0.00 90 961.1
20260904125724 54 308 0.0 0.0 0.00 0.00 0.00 90 961.1
20260904125224 54 308 0.0 0.0 0.00 0.00 0.00 90 961.1
20260904124723 54 308 0.0 0.0 0.00 0.00 0.00 91 961.1
20260904124223 54 308 0.0 0.0 0.00 0.00 0.00 91 960.7
20260904123722 54 308 0.0 0.0 0.00 0.00 0.00 89 960.7
20260904123222 54 308 0.0 0.0 0.00 0.00 0.00 88 960.7
20260904122723 55 308 0.0 0.0 0.00 0.00 0.00 89 960.7
20260904122223 55 308 0.0 0.0 0.00 0.00 0.00 89 960.7
20260904121721 55 308 0.0 0.0 0.00 0.00 0.00 87 960.7
20260904121220 55 308 0.0 0.0 0.00 0.00 0.00 86 960.7
20260904120919 55 308 0.0 0.0 0.00 0.00 0.00 86 960.7
20260904120521 55 308 0.0 0.0 0.00 0.00 0.00 89 960.7
20260904120018 56 308 0.0 0.0 0.00 0.00 0.00 85 960.7
20260904115519 56 308 0.0 0.0 0.00 0.00 0.00 84 960.7
20260904114720 56 308 0.0 0.0 0.00 0.00 0.00 81 961.1
20260904114219 57 308 0.0 0.0 0.00 0.00 0.00 80 960.7
20260904113717 57 308 0.0 0.0 0.00 0.00 0.00 80 960.7
20260904113217 58 308 3.0 0.0 0.00 0.00 0.00 79 960.7
20260904112716 59 2 2.0 0.0 0.00 0.00 0.00 76 960.7
20260904112216 60 3 4.0 0.0 0.00 0.00 0.00 74 960.7
20260904111717 60 258 3.0 0.0 0.00 0.00 0.00 78 960.7
20260904111217 60 271 3.0 0.0 0.00 0.00 0.00 78 960.7
20260904110715 60 255 3.0 0.0 0.00 0.00 0.00 79 960.7
20260904110217 60 269 3.0 0.0 0.00 0.00 0.00 79 960.7
20260904105714 59 260 3.0 0.0 0.00 0.00 0.00 79 960.7
20260904105214 59 234 2.0 0.0 0.00 0.00 0.00 81 960.7
20260904104713 59 240 3.0 0.0 0.00 0.00 0.00 82 960.7
20260904104215 58 202 3.0 0.0 0.00 0.00 0.00 82 960.7
20260904103713 57 230 3.0 0.0 0.00 0.00 0.00 85 960.4
20260904103214 56 251 3.0 0.0 0.00 0.00 0.00 87 960.7
20260904102713 56 230 1.0 0.0 0.00 0.00 0.00 85 960.4
20260904102213 56 169 0.0 0.0 0.00 0.00 0.00 82 960.4
20260904101714 56 169 0.0 0.0 0.00 0.00 0.00 80 960.4
20260904101212 57 169 0.0 0.0 0.00 0.00 0.00 81 960.4
20260904100711 57 169 0.0 0.0 0.00 0.00 0.00 82 960.4
20260904100213 57 169 0.0 0.0 0.00 0.00 0.00 81 960.4
20260904095711 57 169 2.0 0.0 0.00 0.00 0.00 80 960.4
20260904095214 58 169 3.0 0.0 0.00 0.00 0.00 81 960.4
20260904094712 57 218 3.0 0.0 0.00 0.00 0.00 80 960.7
20260904094214 57 209 2.0 0.0 0.00 0.00 0.00 80 960.4
20260904093716 57 174 2.0 0.0 0.00 0.00 0.00 79 960.4
20260904093214 58 211 2.0 0.0 0.00 0.00 0.00 79 960.4
20260904092714 58 216 2.0 0.0 0.00 0.00 0.00 78 960.4
20260904092213 58 306 1.0 0.0 0.00 0.00 0.00 78 960.4
20260904091711 58 298 3.0 0.0 0.00 0.00 0.00 78 960.4
20260904091212 58 304 2.0 0.0 0.00 0.00 0.00 77 960.4
20260904090712 58 336 2.0 0.0 0.00 0.00 0.00 77 960.4
20260904090212 58 321 3.0 0.0 0.00 0.00 0.00 75 960.4
20260904085713 59 296 3.0 0.0 0.00 0.00 0.00 73 960.4
20260904085211 60 344 4.0 0.0 0.00 0.00 0.00 72 960.4
20260904084715 60 322 4.0 0.0 0.00 0.00 0.00 70 960.4
20260904084213 60 309 2.0 0.0 0.00 0.00 0.00 70 960.7
20260904083714 60 295 2.0 0.0 0.00 0.00 0.00 74 960.7
20260904083214 60 313 2.0 0.0 0.00 0.00 0.00 71 960.7
20260904082727 60 318 3.0 0.0 0.00 0.00 0.00 71 960.7
20260904082228 60 333 4.0 0.0 0.00 0.00 0.00 69 960.7
20260904081730 60 302 0.0 0.0 0.00 0.00 0.00 72 960.7
20260904081226 60 301 0.0 0.0 0.00 0.00 0.00 71 960.7
20260904080726 60 301 3.0 0.0 0.00 0.00 0.00 70 961.1
20260904080227 61 301 3.0 0.0 0.00 0.00 0.00 71 961.1
20260904075726 61 287 2.0 0.0 0.00 0.00 0.00 70 961.1
20260904075226 61 288 2.0 0.0 0.00 0.00 0.00 70 961.1
20260904074725 61 294 2.0 0.0 0.00 0.00 0.00 69 961.1
20260904074225 62 201 1.0 0.0 0.00 0.00 0.00 68 961.1
20260904073724 62 186 1.0 0.0 0.00 0.00 0.00 70 961.1
20260904073225 63 273 3.0 0.0 0.00 0.00 0.00 70 961.1
20260904072724 64 199 3.0 0.0 0.00 0.00 0.00 72 961.1
20260904072226 64 262 3.0 0.0 0.00 0.00 0.00 72 961.1
20260904071724 64 279 4.0 0.0 0.00 0.00 0.00 73 960.7
20260904071223 64 165 4.0 0.0 0.00 0.00 0.00 73 960.7
20260904070723 64 274 4.0 0.0 0.00 0.00 0.00 73 960.7
20260904070224 64 282 4.0 0.0 0.00 0.00 0.00 72 960.7
20260904065724 64 301 3.0 0.0 0.00 0.00 0.00 71 960.7
20260904065222 64 223 5.0 0.0 0.00 0.00 0.00 71 960.7
20260904064721 64 169 5.0 0.0 0.00 0.00 0.00 73 960.7
20260904064225 63 241 3.0 0.0 0.00 0.00 0.00 72 960.7
20260904063722 63 242 4.0 0.0 0.00 0.00 0.00 73 960.7
20260904063226 63 284 4.0 0.0 0.00 0.00 0.00 74 960.7
20260904062723 63 274 4.0 0.0 0.00 0.00 0.00 74 960.7
20260904062224 63 219 5.0 0.0 0.00 0.00 0.00 74 960.7
20260904061722 63 194 3.0 0.0 0.00 0.00 0.00 72 960.7
20260904061220 63 248 4.0 0.0 0.00 0.00 0.00 72 960.7
20260904060720 64 195 4.0 0.0 0.00 0.00 0.00 74 960.7
20260904060220 64 144 4.0 0.0 0.00 0.00 0.00 74 960.7
20260904055718 64 149 3.0 0.0 0.00 0.00 0.00 73 961.1
20260904055218 64 204 3.0 0.0 0.00 0.00 0.00 72 961.1
20260904054717 64 165 3.0 0.0 0.00 0.00 0.00 71 961.1
20260904054217 64 77 3.0 0.0 0.00 0.00 0.00 70 961.1
20260904053716 64 307 3.0 0.0 0.00 0.00 0.00 69 960.7
20260904053217 65 307 3.0 0.0 0.00 0.00 0.00 67 960.7
20260904052716 65 106 7.0 0.0 0.00 0.00 0.00 67 960.7
20260904052218 65 105 7.0 0.0 0.00 0.00 0.00 66 960.7
20260904051717 66 87 6.0 0.0 0.00 0.00 0.00 64 960.7
20260904051216 66 61 4.0 0.0 0.00 0.00 0.00 63 960.7
20260904050715 66 95 5.0 0.0 0.00 0.00 0.00 61 960.7
20260904050215 66 50 6.0 0.0 0.00 0.00 0.00 59 960.7
20260904045714 66 3 7.0 0.0 0.00 0.00 0.00 58 960.7
20260904045213 66 71 7.0 0.0 0.00 0.00 0.00 58 960.7
20260904044714 67 151 8.0 0.0 0.00 0.00 0.00 57 960.7
20260904044213 67 87 12.0 0.0 0.00 0.00 0.00 56 960.7
20260904043714 67 183 12.0 0.0 0.00 0.00 0.00 55 960.4
20260904043213 67 84 16.0 0.0 0.00 0.00 0.00 56 960.7
20260904042714 67 136 14.0 0.0 0.00 0.00 0.00 57 960.4
20260904042213 67 114 10.0 0.0 0.00 0.00 0.00 57 960.4
20260904041714 68 22 8.0 0.0 0.00 0.00 0.00 57 960.4